Wind_Speed
34 34 33 33 33 32 31 30 29 28 27 26 25 24 22 20 18 17 16 16 16 15 14 14 13 11 9 6 5 3 1 1 2 3 3 3 3 4 4 5 5 5 4 5 8 10 12 14 16 17 19 20 22 23 24 25 26 27 27 27 27 28 28 28 29 29 30 31 32 32 32 32 33 33 33 34 35 35 36 36 37 37 38 38 37 35 33 30
36 36 35 35 34 34 33 32 31 30 29 28 27 26 24 23 21 20 19 18 18 18 17 16 15 15 13 10 8 7 5 4 2 1 1 1 1 2 3 3 2 3 3 3 3 5 7 10 11 13 15 16 18 19 20 21 22 22 23 23 24 24 25 25 26 26 27 28 28 29 29 29 30 31 31 32 33 34 35 36 37 38 38 38 36 33 29 25
37 37 37 36 36 35 34 33 33 32 31 30 29 28 26 25 23 22 21 21 20 20 19 19 18 18 17 15 12 10 9 8 6 4 3 2 2 2 1 2 2 1 2 2 2 2 3 5 7 9 11 12 14 15 17 18 19 20 20 21 21 21 22 22 23 23 24 25 25 25 25 25 26 26 27 27 28 29 30 31 33 35 36 35 33 28 22 17
38 38 38 37 37 36 36 35 34 33 33 32 31 30 28 26 25 24 23 23 22 22 21 21 20 20 20 18 16 14 12 11 10 8 7 6 5 5 4 3 3 3 3 4 4 4 4 4 5 6 7 9 10 11 13 14 15 16 16 16 17 17 16 16 17 18 18 18 19 18 18 18 18 19 19 20 21 22 24 25 27 29 31 30 26 20 16 13
39 39 39 38 38 37 37 36 35 34 33 33 32 31 29 28 26 25 25 25 24 23 23 22 22 23 22 21 20 18 16 14 13 13 11 10 9 7 7 6 5 5 6 6 6 6 6 6 7 7 7 8 8 9 10 10 11 11 11 11 12 12 12 12 13 14 14 14 14 14 14 14 15 15 16 17 18 18 20 22 24 27 28 26 22 18 16 16
41 41 40 40 39 38 38 37 36 35 34 34 33 32 31 29 27 27 26 26 26 25 24 24 24 24 24 23 22 21 20 18 16 16 15 14 12 11 11 10 9 8 8 8 8 8 9 8 9 9 9 9 9 10 10 10 10 10 10 11 11 11 11 12 13 13 13 13 13 13 13 14 15 15 16 16 16 17 20 23 24 26 26 24 20 17 16 17
42 42 41 40 40 39 38 37 36 35 34 34 34 33 32 30 29 28 28 28 27 26 26 26 25 25 26 25 25 24 24 21 19 20 20 18 16 15 14 14 13 12 11 10 10 10 11 11 11 11 11 12 12 11 11 11 11 12 11 11 12 12 12 12 13 13 13 13 13 13 14 14 15 15 15 16 16 16 20 23 23 23 22 18 13 10 11 13
42 42 41 40 39 39 38 38 37 36 35 35 35 34 33 32 30 30 30 29 28 28 28 28 27 26 27 27 27 27 26 24 23 23 23 22 19 18 18 18 17 15 14 13 13 13 13 13 13 13 14 15 15 14 13 13 13 13 13 12 12 13 13 13 13 14 14 14 14 14 14 14 15 15 15 16 16 18 20 21 20 19 16 11 8 8 10 12
42 42 41 40 39 39 39 38 38 37 36 36 36 36 35 33 32 32 31 31 30 29 29 29 29 28 28 29 29 30 29 26 26 26 25 25 24 22 22 21 21 19 18 17 16 16 15 15 15 16 17 17 16 16 15 15 15 15 14 14 14 14 14 13 13 14 14 14 14 14 14 15 15 15 15 16 16 18 19 19 16 12 9 7 7 7 9 11
43 42 42 41 41 40 40 40 39 39 38 38 38 37 36 36 35 34 33 33 33 32 31 31 31 30 30 31 31 33 31 28 28 29 28 28 27 26 25 25 24 23 21 20 20 19 17 17 18 19 20 19 17 18 18 18 17 17 17 16 16 15 15 14 14 15 15 15 15 15 15 14 14 14 15 16 16 16 17 16 13 7 4 5 5 6 7 9
45 45 44 44 43 43 43 43 42 42 41 42 41 40 39 39 38 37 36 36 36 35 34 34 34 33 32 33 34 36 33 30 32 32 31 31 30 30 28 28 28 26 25 24 23 21 20 20 21 23 23 20 19 20 21 21 20 20 20 19 18 17 17 16 15 15 16 16 16 15 15 14 14 13 13 15 15 14 13 12 10 5 3 5 5 5 6 7
48 48 47 47 47 47 47 46 46 45 45 45 45 44 43 42 42 41 40 39 39 38 37 37 36 36 35 35 36 38 35 33 35 35 34 33 33 33 31 30 31 30 29 28 27 25 23 23 24 25 25 23 22 23 24 24 23 22 22 21 20 20 19 18 17 16 16 16 16 15 15 14 13 13 12 13 13 12 10 9 8 5 3 4 6 6 6 6
52 52 51 50 50 50 50 50 49 48 48 48 48 47 46 45 45 44 43 43 42 42 41 40 39 39 38 38 39 41 37 36 38 38 37 36 35 35 34 33 33 34 33 31 30 29 27 26 26 27 28 26 25 26 27 26 25 25 24 23 22 22 22 20 19 18 16 16 16 15 15 14 13 13 12 12 12 11 8 7 6 5 3 4 6 6 6 7
55 54 54 53 53 52 52 53 52 51 51 51 50 50 49 48 48 47 46 46 45 45 44 43 42 42 41 40 42 43 40 39 39 40 40 39 37 36 36 36 36 37 37 35 34 32 31 29 28 29 30 30 30 29 28 28 28 27 26 26 25 24 24 22 21 20 17 16 16 15 13 12 12 12 11 11 11 10 7 6 5 4 3 3 6 6 7 8
56 56 56 56 55 55 55 56 55 54 54 54 53 53 52 51 50 50 49 49 48 48 47 47 45 45 44 43 44 45 43 41 41 43 43 41 39 38 38 38 39 39 39 38 37 35 34 32 30 31 32 33 33 31 30 31 30 29 29 28 27 26 26 24 23 21 19 16 16 15 13 11 12 11 11 10 10 10 7 6 5 4 3 3 5 7 8 9
58 58 58 58 57 57 57 58 58 57 56 56 55 55 54 53 53 53 52 52 51 50 49 49 49 48 46 45 46 47 46 44 43 45 45 43 41 40 41 41 41 40 40 40 40 38 37 35 33 32 33 34 34 34 33 33 33 33 31 29 28 28 28 26 24 23 20 17 17 15 13 12 12 11 10 11 10 9 8 6 6 5 4 4 6 8 10 11
60 60 60 60 59 58 59 59 60 60 58 58 58 58 57 56 56 55 55 55 54 53 51 51 51 50 49 47 47 48 48 46 46 46 46 45 43 43 43 43 42 41 41 41 42 42 40 38 36 35 35 35 36 36 35 36 36 35 32 30 29 29 30 28 26 25 22 19 17 16 14 12 12 11 10 11 10 9 9 7 6 7 6 6 7 9 11 13
64 64 64 64 63 62 62 63 64 64 63 62 62 62 61 61 60 60 59 59 58 57 54 54 54 53 53 50 48 49 50 48 47 48 47 46 46 46 45 45 44 43 43 43 43 43 43 42 40 38 36 36 37 38 39 40 38 36 33 31 29 30 31 30 29 28 25 21 19 17 16 14 13 12 11 11 11 10 9 8 7 8 9 9 10 11 13 15
69 69 69 68 67 66 66 66 67 68 67 66 66 66 65 65 64 64 63 62 62 60 58 58 57 57 57 54 51 51 51 50 50 49 49 48 47 47 47 46 46 46 45 45 45 44 44 44 42 41 40 40 40 41 43 42 39 36 34 31 30 31 32 32 31 30 27 24 21 18 17 15 14 14 12 11 11 10 10 9 8 9 10 12 13 13 15 16
71 72 72 72 71 69 69 68 69 69 70 69 68 68 67 67 66 65 66 65 64 63 62 60 60 59 59 58 55 53 52 52 52 51 51 50 50 49 49 48 48 48 48 48 46 45 45 45 46 47 46 44 43 44 44 43 41 38 35 33 32 32 34 34 33 32 29 26 23 21 19 17 16 16 14 12 12 11 11 11 8 8 11 14 15 16 17 18
72 73 73 73 73 72 71 70 70 70 70 70 69 68 67 67 67 66 66 66 65 65 63 62 62 62 62 60 58 56 54 52 53 54 53 52 52 51 51 51 50 51 51 49 47 47 48 50 51 51 49 47 46 45 44 44 43 40 38 37 35 35 37 36 35 35 31 28 26 23 21 19 18 17 15 14 14 12 11 12 9 7 10 14 17 18 19 19
73 73 74 75 74 73 71 71 71 70 70 70 70 68 67 68 67 66 66 65 66 65 64 64 63 64 64 61 59 57 54 53 55 55 56 54 52 53 54 53 52 53 51 49 49 50 52 54 53 51 51 49 47 46 45 47 46 43 41 41 40 41 40 38 38 37 34 31 29 26 24 22 20 19 16 16 16 13 12 12 11 7 7 14 18 19 20 21
76 76 77 78 77 76 74 73 72 72 72 71 71 71 69 69 69 68 67 66 67 66 65 66 65 65 67 62 60 57 55 56 56 56 57 54 53 54 54 53 53 53 50 49 51 52 55 55 51 50 51 50 49 48 47 49 49 47 45 45 46 46 44 43 41 39 37 35 31 29 28 25 22 20 17 19 18 15 12 12 12 8 7 13 17 19 21 22
79 79 80 81 81 80 79 78 76 75 75 75 74 74 73 72 72 71 69 68 70 70 68 68 67 68 69 65 61 57 57 59 57 57 58 55 54 55 54 55 54 51 49 50 52 52 54 53 49 49 50 49 49 49 49 50 51 51 49 49 51 48 47 46 42 41 42 38 32 31 30 27 24 21 18 20 20 17 14 13 13 11 8 12 15 18 20 22
79 81 81 82 83 83 82 81 80 78 78 78 77 76 76 76 75 74 73 71 71 74 72 70 70 72 71 68 64 60 61 61 60 60 60 57 57 56 56 56 53 50 51 52 50 51 52 51 48 48 48 47 48 49 50 51 52 52 51 52 52 49 49 48 45 45 44 39 35 32 32 30 27 23 21 22 22 19 16 14 13 13 10 11 14 16 19 21
81 82 83 83 84 85 84 84 82 81 80 79 78 78 78 77 77 76 76 74 72 75 76 73 72 74 74 71 67 65 63 63 63 62 59 59 59 58 57 55 53 52 52 51 49 49 50 50 48 46 46 47 47 49 51 51 51 51 51 51 50 49 50 49 47 46 43 41 37 33 34 33 29 27 25 25 23 21 18 15 14 14 12 11 13 15 18 20
84 85 86 86 86 87 87 86 86 85 83 82 80 80 80 79 79 78 77 76 74 75 77 76 74 73 74 73 70 68 64 64 66 63 60 62 61 59 56 54 53 53 53 50 46 47 51 52 49 46 46 46 47 49 50 48 48 49 49 48 48 49 50 49 46 44 43 43 39 35 36 34 32 32 30 27 25 23 21 18 15 14 13 12 13 14 16 19
86 87 88 89 88 88 89 89 89 88 87 86 84 83 83 82 81 81 80 80 77 76 78 78 76 73 73 74 73 70 65 65 67 63 62 64 62 59 56 53 54 54 55 51 47 51 53 51 49 46 43 43 46 47 45 43 44 46 46 45 45 46 46 46 44 42 43 43 40 38 37 36 37 36 32 29 27 26 24 20 18 16 15 14 14 15 16 19
86 86 87 89 89 89 89 89 90 90 89 88 87 86 86 85 85 84 84 83 80 78 79 78 78 76 75 75 76 74 69 68 68 65 64 64 62 60 57 56 56 56 56 52 50 52 51 50 48 44 41 42 44 45 43 41 43 45 45 43 42 43 44 44 42 42 43 42 41 43 41 40 42 39 34 33 31 30 27 22 20 18 17 16 16 16 16 18
85 85 86 87 88 89 89 89 89 90 90 90 89 88 88 88 87 88 87 86 83 81 81 80 80 79 78 78 78 77 74 72 71 68 67 66 65 63 60 60 59 57 55 53 51 50 50 51 48 42 42 44 45 45 43 41 43 44 42 39 39 40 43 43 42 43 42 41 44 48 46 45 45 41 38 39 37 33 27 23 22 22 20 18 16 16 16 17
86 86 86 87 88 88 88 89 88 89 89 90 90 90 89 89 90 90 88 86 86 85 83 83 81 81 81 80 79 78 77 76 74 72 70 68 68 66 63 61 59 57 55 53 51 49 50 52 47 44 45 46 45 46 44 41 42 41 39 36 36 38 40 40 41 41 41 45 52 54 50 47 48 45 43 44 41 34 28 26 26 25 21 19 18 17 18 18
89 89 89 89 90 90 90 90 90 89 89 89 90 90 90 90 91 91 89 88 89 88 85 84 83 82 82 81 80 80 79 78 77 75 73 71 70 69 66 64 61 59 56 53 52 50 51 52 50 47 47 46 45 45 44 41 40 40 37 34 34 36 37 38 39 40 45 53 58 55 49 48 52 50 47 48 42 35 32 30 29 26 23 21 20 19 20 21
92 92 92 92 92 92 92 92 92 92 91 90 90 91 91 90 89 89 90 91 90 88 86 85 84 84 84 83 82 81 81 80 78 78 77 74 72 71 69 67 65 63 60 58 57 54 54 55 52 49 48 47 45 45 43 41 41 40 37 33 33 34 34 35 38 41 47 53 54 51 48 50 55 52 48 49 43 37 36 33 30 28 25 23 22 21 22 23
95 95 95 95 94 94 94 94 94 94 93 93 92 92 92 91 90 89 89 89 87 87 88 88 87 87 87 86 84 83 83 81 80 79 79 77 75 72 71 69 67 65 62 60 58 56 56 55 52 50 50 49 47 47 46 45 42 40 34 30 28 30 32 34 37 40 43 45 45 47 48 52 57 52 49 49 43 39 39 35 32 30 27 25 23 23 24 25
99 98 97 97 97 97 97 96 96 96 95 95 95 95 94 93 94 92 88 85 85 87 87 88 89 90 89 88 87 86 85 83 82 81 80 78 77 75 73 71 69 68 65 61 58 57 56 54 54 54 54 52 51 51 49 45 40 38 33 27 27 31 33 33 33 35 37 37 39 44 48 54 58 53 50 50 45 43 42 37 34 31 29 27 26 26 27 27
101 100 100 99 99 99 98 98 98 97 97 97 96 97 96 95 95 93 89 86 86 87 87 88 90 90 91 90 89 88 86 84 84 83 82 80 80 78 75 73 71 70 67 61 59 58 57 55 55 56 56 53 52 52 49 43 40 38 32 29 32 32 29 28 30 33 33 33 37 42 47 54 56 53 52 52 48 45 43 39 36 34 32 30 29 28 28 29
104 104 103 102 101 101 100 100 99 98 99 99 98 98 97 96 95 93 91 90 89 88 89 90 90 90 91 90 90 89 87 86 86 86 85 83 81 79 76 74 72 70 66 61 59 60 60 58 56 58 59 56 56 54 50 46 42 36 32 33 32 27 25 27 29 31 31 33 36 40 46 52 53 53 55 55 51 47 44 41 38 35 33 32 32 31 30 30
108 108 108 107 106 105 104 103 102 101 100 100 100 100 98 96 94 93 92 91 91 91 91 92 91 90 90 89 89 89 89 89 88 88 88 85 83 80 77 75 73 70 67 63 63 62 62 60 58 61 63 61 60 57 51 49 42 36 37 36 29 26 28 28 28 30 32 34 38 41 46 49 50 55 58 57 54 51 47 43 41 37 34 34 34 33 32 31
109 110 110 110 109 108 108 107 106 106 105 103 102 102 100 97 95 93 92 91 91 92 92 93 92 91 90 89 89 90 92 91 89 90 89 86 83 80 78 76 74 71 68 66 66 64 63 62 61 63 66 65 63 56 50 49 43 39 41 36 30 31 31 28 29 32 33 35 38 40 42 45 47 51 54 55 54 52 48 46 43 40 37 36 36 35 34 33
104 105 105 104 104 104 104 105 106 107 108 107 106 105 103 101 99 95 92 90 92 93 93 93 92 91 91 90 90 92 93 92 91 91 89 86 84 82 80 78 75 73 70 69 68 66 65 65 63 65 68 66 61 54 51 51 46 42 41 38 35 34 32 31 32 32 32 35 38 39 40 42 43 45 49 53 53 50 48 46 45 43 40 39 38 36 35 34
95 94 93 92 91 91 92 94 97 99 103 105 107 107 105 105 104 101 96 92 91 92 93 92 90 90 91 91 91 93 94 93 93 92 90 88 87 84 82 79 77 75 73 72 72 68 68 68 66 66 68 66 62 58 56 54 51 47 45 42 41 38 35 35 35 34 36 38 40 40 39 40 41 41 45 50 51 51 50 47 45 45 43 41 40 38 36 35
85 83 82 81 79 78 78 80 82 85 90 95 99 103 105 106 107 105 102 97 93 92 93 92 90 90 91 92 92 93 94 95 95 94 91 89 88 85 83 81 79 77 76 75 73 69 69 70 68 67 67 67 65 62 59 57 55 53 48 44 43 41 38 36 36 37 38 40 41 40 38 38 39 39 40 45 48 50 52 51 48 47 45 44 43 40 38 36
77 75 73 72 71 68 68 69 70 72 77 82 87 94 100 103 106 107 106 103 99 95 92 92 92 90 91 92 92 92 94 96 96 95 92 90 89 87 86 84 82 80 79 77 73 71 72 72 71 70 70 70 66 62 60 59 58 54 48 44 43 42 40 38 38 39 39 40 40 38 38 37 34 35 37 40 43 46 50 53 52 50 48 47 45 44 42 39
70 68 66 65 64 62 61 61 61 63 66 70 76 83 90 96 101 104 106 106 104 100 94 92 92 91 91 91 91 93 94 96 98 96 94 92 90 89 88 87 85 82 80 77 75 75 75 74 74 74 72 70 66 63 62 61 57 53 50 46 44 44 43 42 41 40 38 37 34 33 36 35 30 30 33 36 40 43 46 51 54 53 52 51 49 48 46 45
62 62 60 57 57 57 56 55 56 57 59 62 67 73 80 87 94 99 103 106 107 105 100 95 92 93 92 90 92 94 95 96 97 96 95 94 92 91 90 90 88 84 82 79 77 78 78 76 76 75 72 70 67 62 62 60 56 53 52 49 46 45 45 45 45 41 37 35 32 30 34 33 28 28 30 33 38 39 42 47 52 54 55 54 53 52 50 49
54 55 54 52 51 51 51 50 50 52 53 56 60 64 71 79 86 92 98 103 106 107 105 100 95 94 93 92 92 94 95 95 96 95 96 96 93 92 92 91 90 87 84 82 80 81 80 78 77 76 72 71 68 63 62 60 56 55 52 50 48 46 47 49 47 42 39 38 34 32 37 36 30 29 30 32 35 37 39 43 47 51 54 55 55 54 53 51
49 49 49 49 47 47 46 45 45 47 49 51 55 59 63 70 78 85 92 98 103 106 107 105 101 97 95 94 93 94 95 95 94 93 95 96 95 94 93 93 92 90 87 85 83 83 82 80 79 77 74 72 69 65 64 61 59 57 54 52 51 49 50 51 48 44 43 40 36 36 41 39 33 32 32 32 34 36 38 39 41 45 50 53 54 55 55 54
47 45 45 45 44 44 43 42 41 42 44 47 51 55 59 64 71 78 86 92 98 103 107 108 106 101 97 96 94 94 94 95 95 94 93 95 96 96 95 94 94 92 90 88 86 84 84 83 81 79 76 73 71 68 66 64 62 59 57 55 54 53 53 51 50 48 46 42 39 40 43 42 38 36 35 34 34 35 36 37 37 39 43 48 51 54 55 55
44 43 41 40 40 40 40 39 38 38 39 42 47 51 55 59 64 72 80 87 93 100 105 108 108 105 101 98 96 95 94 95 96 94 91 92 95 97 97 96 96 94 92 91 88 86 86 84 82 80 77 74 72 71 68 66 64 61 59 58 57 55 54 52 51 50 47 45 43 43 44 45 42 39 37 35 33 32 32 33 33 34 37 40 45 49 53 55
38 39 38 37 36 36 37 36 35 34 36 39 42 47 51 55 59 65 73 81 88 95 101 106 107 107 105 102 100 97 95 95 95 92 90 91 94 97 98 97 96 95 94 92 90 89 88 85 83 81 79 77 75 73 70 68 66 63 61 59 58 57 55 54 53 51 48 47 46 45 46 45 43 41 39 35 33 31 31 31 30 31 32 34 38 42 46 51
36 35 35 35 33 32 33 33 32 32 32 35 39 42 47 51 55 60 66 74 81 89 97 102 105 107 107 105 103 100 96 95 94 92 91 92 94 95 97 97 96 95 95 94 92 91 89 85 83 84 82 80 78 76 73 71 68 65 62 60 60 59 58 56 55 52 50 48 48 47 46 44 44 44 41 38 35 33 32 32 31 31 31 32 34 36 39 43
35 33 32 32 31 30 30 30 29 29 29 32 36 39 43 47 51 55 60 67 75 83 91 98 102 105 107 106 105 102 98 95 94 93 93 93 93 93 95 96 96 97 97 96 94 92 90 86 86 86 85 83 81 78 75 72 70 67 63 62 62 62 61 60 58 55 52 51 50 48 45 44 46 45 42 39 38 36 35 34 32 31 31 31 32 33 35 38
Wind_Direction
262 264 265 266 266 267 268 269 270 270 270 270 270 268 267 264 263 263 263 262 261 259 260 263 266 265 261 260 263 259 224 144 106 80 63 54 56 67 69 67 70 79 105 147 173 187 198 206 213 219 223 227 230 233 236 239 241 243 245 246 248 250 253 255 258 259 260 261 262 264 265 267 269 271 272 273 274 275 275 276 276 276 277 277 277 277 278 280
262 263 263 264 265 266 267 268 268 268 269 268 268 267 265 264 262 261 261 260 259 256 255 255 258 261 260 257 256 255 253 247 227 197 113 40 16 74 100 94 86 86 86 104 139 168 185 197 205 214 220 225 230 233 237 239 241 244 246 248 249 252 255 257 259 260 262 263 264 265 267 268 270 272 273 273 274 275 275 275 276 276 276 276 275 276 277 280
261 262 263 264 265 266 266 267 267 267 267 266 266 265 264 263 261 260 259 258 256 255 253 251 252 255 257 257 254 252 253 254 246 237 237 242 272 276 176 152 165 167 158 161 155 162 181 192 198 205 213 220 226 231 235 238 241 243 245 248 250 252 255 257 260 262 263 264 265 267 268 269 270 271 272 273 274 275 275 276 276 276 276 275 274 274 274 274
262 263 264 264 265 266 266 266 266 266 266 265 264 263 262 261 260 260 258 257 255 253 252 250 249 250 252 254 254 252 249 252 253 244 242 250 254 260 255 221 207 214 214 212 211 205 204 210 210 207 206 211 218 223 228 232 236 239 241 244 247 249 252 256 260 262 264 266 268 269 269 270 271 272 273 276 278 277 278 280 280 279 277 275 272 268 262 253
264 264 265 265 265 265 265 265 265 265 265 264 263 261 260 259 259 258 257 256 255 252 251 249 248 248 248 249 251 252 250 249 253 250 247 251 250 254 260 253 239 234 230 226 229 227 221 222 229 230 223 216 215 218 222 225 227 230 234 236 240 244 247 252 258 261 264 268 271 271 271 272 274 275 277 281 281 280 287 290 289 286 282 275 267 259 254 249
264 264 265 264 265 264 264 264 264 263 263 262 262 260 259 258 257 256 255 254 253 252 250 248 248 248 247 247 248 250 251 249 251 254 252 249 251 254 257 257 253 248 242 236 233 233 233 230 234 242 244 239 230 226 226 227 227 229 232 236 239 242 245 251 257 261 265 268 271 273 275 275 276 278 281 286 288 288 296 301 298 292 283 273 266 262 260 258
264 264 264 264 264 264 263 263 263 262 261 261 260 259 258 257 256 255 253 252 252 251 250 248 247 248 248 248 247 248 249 248 250 253 253 250 252 256 256 256 255 251 248 248 243 239 238 236 236 241 247 251 247 241 238 236 235 236 236 238 242 246 250 255 260 264 268 270 274 276 279 280 282 286 290 295 300 303 307 309 304 292 280 269 261 259 262 259
263 263 263 263 263 263 263 262 262 261 261 260 260 259 258 257 255 254 252 251 250 249 249 248 246 247 248 249 248 247 246 247 250 252 253 253 252 255 256 255 255 253 251 249 249 246 244 243 242 242 244 248 251 249 247 246 245 244 244 243 247 251 255 261 266 270 273 276 278 281 285 287 288 293 300 306 314 319 319 316 308 292 274 256 241 242 251 254
263 263 263 263 263 263 262 262 262 261 261 260 260 259 258 257 255 254 252 251 250 248 247 247 246 245 247 249 250 249 245 245 249 250 252 254 253 254 256 256 254 254 253 251 251 250 248 250 252 250 245 245 249 252 252 251 252 252 252 251 252 255 260 264 269 273 276 279 283 287 291 293 295 301 309 317 325 328 326 322 314 293 263 232 223 236 246 247
263 262 262 262 262 262 262 262 262 262 261 261 261 260 259 258 256 254 253 252 250 249 247 247 247 245 246 248 250 251 247 246 249 249 250 252 254 254 255 256 255 254 255 254 252 250 250 252 253 252 249 248 250 252 252 252 253 255 257 257 257 259 263 266 270 276 280 284 288 292 295 297 302 310 318 326 333 334 330 326 320 295 233 194 204 230 236 231
262 263 262 262 262 262 262 263 262 262 262 262 262 261 261 260 259 257 255 254 253 251 249 248 248 246 246 247 250 251 249 248 249 248 248 250 252 254 254 256 256 255 254 253 252 251 249 248 250 251 250 250 252 253 252 252 253 254 256 256 258 261 263 267 271 276 282 287 291 295 298 301 307 315 323 331 336 337 332 324 316 293 219 180 190 206 208 210
263 263 263 263 263 263 263 263 263 263 263 263 263 262 262 261 261 259 258 257 255 253 252 250 250 248 248 248 250 251 249 249 250 249 249 249 249 251 253 254 256 256 254 253 252 250 247 246 247 250 251 250 251 253 251 251 253 254 254 254 256 259 261 264 269 274 280 285 290 293 297 303 310 316 325 332 336 337 329 315 308 293 243 185 174 179 187 200
264 264 264 264 264 264 264 264 264 264 264 264 264 263 262 262 262 261 259 258 258 256 254 253 252 251 250 249 251 251 249 249 251 251 250 250 249 250 252 253 254 255 255 253 251 250 248 245 246 249 251 250 248 249 250 251 253 254 254 254 254 256 257 259 263 269 275 281 286 290 296 303 311 316 322 329 334 334 322 303 300 297 262 194 167 165 180 194
265 265 265 265 264 264 265 265 264 264 264 264 264 264 263 262 262 261 261 260 259 258 257 255 254 253 252 251 252 252 249 249 251 253 251 250 250 251 251 251 252 253 254 253 251 249 248 246 245 246 249 250 248 247 249 251 252 253 254 254 254 255 255 256 259 263 268 275 282 287 293 301 307 311 316 324 329 329 318 296 284 287 271 205 171 165 179 190
265 265 265 265 265 265 266 265 265 264 264 264 264 264 263 262 262 262 261 260 259 259 258 257 255 254 253 252 253 253 251 250 251 252 252 251 251 251 251 250 250 251 252 253 252 250 249 248 244 244 247 250 251 250 249 250 250 251 251 252 254 256 256 255 256 258 261 268 276 282 287 293 297 301 307 315 321 323 312 290 269 263 261 216 182 172 178 187
265 265 265 265 265 265 266 266 265 264 264 264 264 263 263 263 262 262 261 261 260 259 259 258 257 255 254 253 254 254 253 251 251 252 252 251 250 250 250 249 249 250 251 252 252 251 248 246 244 243 245 248 250 250 249 249 249 248 248 250 252 255 257 257 257 257 257 261 268 275 279 282 286 291 297 303 311 315 306 286 259 243 236 222 196 180 178 185
265 265 265 264 264 264 265 265 266 265 264 264 264 264 264 264 263 263 262 262 261 260 259 259 258 257 255 253 253 255 254 251 251 252 252 251 250 249 249 249 249 249 249 250 250 250 249 247 245 244 244 246 249 250 249 248 247 247 247 249 251 254 258 258 258 256 254 255 260 267 271 273 277 278 281 290 298 305 301 286 259 234 219 216 205 188 181 183
266 265 265 264 264 264 264 265 265 265 265 264 265 265 265 265 264 264 263 263 262 261 260 260 259 258 256 253 253 254 254 252 251 252 252 251 250 249 249 249 249 248 248 249 249 250 250 249 247 246 246 247 248 249 249 248 247 248 249 249 250 253 256 257 257 256 253 252 254 259 264 266 269 269 267 276 286 292 295 287 265 239 216 209 205 194 185 184
266 266 266 265 264 264 264 264 265 265 265 264 264 264 264 264 264 264 263 263 262 262 261 260 259 258 257 255 253 253 254 253 251 251 252 251 250 249 249 249 249 249 248 248 248 249 250 250 249 248 246 245 245 247 248 248 248 249 250 249 249 251 254 255 255 255 252 250 251 253 258 260 262 264 263 266 274 281 287 286 272 247 221 206 202 196 187 185
267 266 266 265 264 264 263 263 264 264 264 264 263 263 263 263 263 262 263 262 262 261 260 259 259 258 257 256 253 252 253 254 253 252 252 252 251 250 250 249 249 249 248 248 248 249 250 251 250 247 245 244 244 246 248 250 249 249 250 250 250 250 252 253 254 254 252 249 248 248 252 255 256 258 259 260 264 272 278 283 280 256 229 209 200 198 190 186
267 266 266 265 264 263 263 262 262 262 263 263 262 261 261 261 261 261 261 261 261 261 260 259 259 258 256 255 254 253 253 254 255 253 252 252 252 252 251 249 249 250 249 249 250 251 251 249 248 247 247 246 246 247 250 252 251 250 250 250 250 249 249 250 251 251 250 248 247 246 247 249 250 253 255 256 258 263 270 278 282 268 234 214 204 199 192 186
268 268 267 266 265 264 262 262 261 261 261 261 261 260 259 259 260 260 260 260 260 260 260 259 258 258 256 255 255 254 253 254 254 254 253 252 253 254 253 252 251 251 251 252 253 252 251 249 248 249 250 249 249 249 249 251 250 248 247 248 247 246 245 246 247 248 248 245 243 243 243 243 246 250 251 253 254 255 262 271 276 271 232 217 211 205 198 189
269 269 268 268 267 265 264 262 261 261 260 260 260 260 259 258 258 258 258 259 259 259 258 258 257 257 257 255 254 254 254 253 253 254 254 254 254 254 255 254 253 252 253 253 253 252 252 251 250 250 250 249 248 247 247 247 248 246 243 243 243 242 242 242 243 245 245 242 240 241 242 242 245 247 247 249 251 249 251 261 269 263 226 217 216 211 205 195
268 268 268 267 267 266 265 263 262 261 261 260 260 259 259 258 258 257 257 257 259 258 257 257 258 257 257 256 254 253 254 254 253 255 255 253 254 255 255 255 254 254 254 253 253 253 253 252 250 249 248 247 246 245 244 244 244 242 240 239 240 239 239 240 240 242 242 241 239 240 242 242 243 244 243 245 248 246 243 250 261 260 233 219 218 215 213 205
268 267 267 266 266 266 265 264 262 261 260 259 259 259 259 258 258 257 257 256 257 258 257 256 257 257 257 257 255 253 253 253 253 253 254 254 254 254 255 256 256 256 254 253 253 253 254 253 249 247 247 245 244 243 242 241 242 241 239 238 238 238 238 238 237 238 241 241 239 239 242 242 241 241 239 240 243 243 240 242 252 256 244 225 219 217 217 213
267 267 266 265 265 265 264 263 262 261 260 259 258 258 257 257 257 256 256 255 254 256 257 255 255 256 257 257 255 254 253 253 254 253 255 255 255 254 255 256 256 254 253 252 252 253 253 252 248 245 244 243 242 242 241 240 241 242 240 238 238 238 239 238 237 238 241 242 240 238 241 242 240 239 237 238 241 242 238 236 241 250 248 232 221 220 219 219
267 266 265 265 264 263 263 263 262 261 259 258 257 256 256 255 255 255 255 254 252 253 255 255 254 254 257 257 256 254 253 253 253 253 253 253 253 252 252 253 253 252 251 249 248 248 248 248 247 244 244 244 244 243 242 241 242 243 242 240 238 238 238 239 238 238 240 243 242 239 241 242 240 239 237 238 240 240 238 234 233 240 242 232 223 221 222 223
267 266 265 264 263 262 262 262 261 260 259 258 256 255 255 254 253 253 253 252 251 251 252 254 254 253 254 256 256 254 252 251 252 251 250 251 251 251 251 250 250 249 249 247 244 244 246 248 248 247 246 248 248 247 245 244 245 245 244 241 239 239 239 239 238 238 239 242 242 240 239 240 239 237 236 238 237 237 236 231 228 232 235 229 221 220 222 223
267 266 265 264 263 262 261 260 260 260 259 258 256 255 254 253 252 252 251 251 251 250 250 251 253 253 252 253 254 254 252 250 251 250 249 250 250 250 248 246 245 245 247 247 244 245 248 250 249 248 249 249 250 248 245 243 243 243 242 240 239 238 237 237 235 234 235 237 240 238 235 236 237 235 234 235 233 231 231 229 226 226 230 228 220 218 220 220
267 266 265 264 263 262 261 260 259 259 258 257 256 255 254 253 252 251 250 250 250 249 249 249 250 252 251 251 251 253 252 250 249 249 248 248 248 248 246 244 244 245 247 247 246 246 248 249 248 247 245 244 245 246 243 240 241 242 241 239 238 236 235 233 231 230 228 229 235 235 229 230 235 232 231 232 230 228 229 226 224 223 225 227 221 217 214 213
268 267 265 264 263 262 261 260 258 258 257 257 256 254 253 252 251 251 250 250 249 248 247 248 248 249 250 250 249 250 250 250 249 248 247 247 247 247 246 246 246 246 246 247 247 245 245 246 247 243 241 240 242 245 244 241 242 242 240 237 236 235 234 232 230 228 224 224 229 230 224 225 231 229 227 230 229 227 226 223 223 221 219 222 220 214 206 203
269 267 266 265 264 263 262 261 259 258 257 256 256 255 253 251 250 250 250 249 248 247 247 247 247 247 247 248 248 247 247 247 247 247 246 245 245 246 245 244 243 243 241 240 238 236 236 240 239 236 236 237 239 242 243 242 242 242 239 235 234 233 232 230 229 225 223 223 227 228 224 224 230 228 226 230 228 224 224 222 222 220 215 216 217 211 203 198
269 268 267 266 264 263 262 261 260 259 257 256 255 255 254 252 250 249 249 248 247 248 247 246 245 245 245 245 245 246 245 245 245 245 245 244 243 243 243 243 242 241 239 236 235 232 233 237 238 236 235 235 235 236 239 238 238 238 236 231 231 231 230 229 227 224 225 226 228 229 225 226 231 229 228 231 228 224 225 223 222 220 213 212 213 209 203 198
270 269 268 267 266 264 263 262 261 260 259 257 256 254 254 253 252 249 247 247 247 247 245 244 243 243 243 243 243 243 244 243 242 242 243 243 242 241 241 242 242 241 240 238 237 235 234 237 239 235 232 230 229 230 233 235 236 237 235 231 232 234 232 230 228 228 229 229 230 230 227 228 232 229 229 232 229 225 227 224 223 222 216 212 211 209 205 201
272 271 269 268 267 266 264 263 262 261 260 258 257 255 254 253 252 250 248 247 246 245 244 243 242 241 241 241 241 241 241 242 241 240 240 240 240 239 238 238 238 238 237 235 234 233 232 233 233 232 230 229 229 231 234 236 236 237 236 231 230 232 231 231 231 232 232 229 229 229 227 229 231 228 228 230 227 224 226 224 223 223 219 214 211 210 208 204
274 273 272 270 269 267 266 264 263 262 261 259 257 256 255 253 252 251 250 247 245 244 243 242 240 240 239 239 239 239 240 240 240 240 239 238 238 238 237 236 236 237 237 235 233 232 230 228 228 230 231 231 231 233 235 236 234 235 234 227 226 229 230 231 232 232 231 228 228 227 227 230 230 227 229 230 227 224 224 223 222 221 221 217 212 211 210 207
277 276 275 274 272 270 268 266 264 263 261 260 259 257 256 254 253 251 249 247 245 243 242 241 240 239 239 239 239 239 238 238 238 238 237 236 236 236 237 236 235 236 236 234 231 230 229 226 224 226 229 228 227 228 231 232 230 229 228 226 227 229 230 230 229 229 227 225 226 224 225 228 226 224 227 228 226 224 223 223 222 221 221 221 217 213 211 211
278 277 276 275 274 272 270 268 266 264 262 260 260 259 257 255 254 251 249 246 245 243 242 241 240 239 238 238 237 237 236 235 235 236 236 236 235 235 235 235 234 234 232 231 229 227 227 225 222 224 228 227 226 226 227 230 227 220 221 225 223 222 224 224 222 222 223 224 226 225 226 228 224 221 224 225 223 222 221 221 222 221 221 223 222 217 213 212
278 277 275 274 272 271 269 267 265 263 262 260 259 258 258 257 255 252 249 246 244 243 241 240 240 238 237 236 236 235 235 234 234 234 236 235 235 234 233 233 233 232 230 228 227 226 226 224 221 222 226 227 227 226 225 230 227 218 221 224 218 216 218 217 216 218 220 224 228 228 229 230 227 223 224 226 224 221 220 220 220 219 218 221 224 221 217 215
280 278 276 274 272 269 267 265 262 260 259 258 256 255 255 256 255 254 250 246 244 243 242 240 239 238 237 235 234 234 233 233 232 233 233 234 233 232 231 230 230 230 229 226 225 223 223 224 221 221 225 227 228 226 223 227 227 220 220 220 215 214 210 208 212 213 213 218 224 226 228 231 231 225 224 226 226 223 222 222 222 221 219 220 223 223 221 218
283 281 279 276 273 270 267 264 261 258 256 254 253 252 251 251 252 252 251 248 244 242 241 240 238 237 237 235 233 232 232 232 231 232 231 231 232 231 230 229 228 228 227 225 224 221 220 223 221 221 224 226 226 225 221 222 224 220 216 214 213 209 203 204 209 207 206 213 221 226 227 231 232 228 224 226 225 222 221 221 223 224 222 222 223 224 224 223
286 284 282 279 276 273 269 265 261 258 254 252 250 249 248 247 247 248 249 248 245 242 240 240 238 235 235 234 233 231 231 231 231 231 230 230 230 230 230 228 227 226 225 225 224 221 219 221 221 220 223 225 224 223 222 220 221 220 214 211 211 208 204 205 208 208 207 213 222 227 226 227 231 230 226 226 225 223 220 219 219 221 223 223 223 223 225 226
288 286 283 281 278 275 271 267 262 258 254 250 247 245 244 243 242 243 244 245 244 242 239 238 237 235 233 233 232 231 230 230 230 230 229 229 228 228 228 228 226 225 224 224 223 221 220 219 220 219 220 223 222 221 222 220 220 220 215 211 210 207 203 202 206 210 209 212 220 226 225 223 227 230 227 226 226 224 221 220 218 218 219 221 221 221 222 224
289 287 284 282 279 276 272 268 264 259 254 249 245 242 241 240 239 238 239 240 241 241 239 237 236 235 233 231 231 231 230 229 229 228 228 227 227 226 226 227 226 224 224 223 221 221 220 219 219 219 219 221 221 219 221 221 219 218 216 211 208 206 201 199 204 210 208 207 214 223 227 224 222 228 228 227 227 225 222 221 220 218 218 218 219 218 218 219
290 288 286 283 280 277 273 269 264 259 255 250 245 241 238 237 236 235 235 236 237 238 238 236 234 234 233 230 229 230 229 228 228 228 227 226 226 225 225 225 226 224 223 222 220 220 220 219 219 220 218 220 220 218 220 221 218 217 216 212 209 206 201 199 204 206 201 201 206 217 227 224 215 219 223 224 226 226 224 222 221 220 219 219 220 219 217 217
293 290 288 285 282 278 274 269 264 259 254 250 246 241 238 235 234 233 231 232 233 235 236 235 234 232 232 230 229 228 229 228 228 227 226 226 225 224 224 224 224 224 223 222 219 219 219 219 219 219 218 218 219 217 218 219 217 215 214 212 208 204 199 199 202 202 197 199 202 210 223 222 211 211 217 220 224 225 225 225 223 221 221 221 222 222 221 220
296 293 291 288 285 280 276 271 265 260 254 250 246 242 238 235 233 231 230 229 229 231 232 233 233 231 230 230 228 227 228 228 228 226 226 225 225 224 224 223 223 223 222 221 220 219 219 218 218 219 217 217 217 216 217 217 216 214 212 210 206 201 198 198 199 198 197 198 199 207 220 221 213 212 215 217 221 223 224 226 225 223 223 222 223 224 226 225
299 296 292 290 287 283 278 273 267 261 255 249 245 241 238 234 231 230 229 227 226 227 229 230 231 230 229 229 228 227 226 227 227 226 225 224 224 224 223 222 222 222 221 221 220 219 219 217 217 218 217 216 215 215 215 215 215 214 210 208 205 200 197 196 195 196 196 196 197 205 216 219 214 211 213 214 216 219 222 224 224 222 222 222 222 223 225 227
303 299 295 291 288 284 280 275 269 263 256 250 245 241 238 235 231 229 228 226 224 224 225 227 228 228 228 228 227 226 225 225 226 226 225 224 223 223 223 222 222 221 221 220 219 219 219 217 216 217 217 215 215 215 214 214 214 213 210 207 204 200 198 196 195 195 195 194 197 204 213 218 215 210 211 212 212 214 219 221 222 221 220 221 221 222 223 225
307 303 299 295 290 286 281 276 271 264 257 250 245 241 238 235 232 229 227 226 224 222 223 224 226 226 226 226 226 226 225 225 226 226 225 224 223 223 223 222 222 221 220 220 219 219 219 217 216 216 216 215 215 214 213 213 213 212 209 207 204 201 199 196 194 194 194 194 199 205 212 218 217 211 209 210 209 209 212 215 217 218 219 221 221 222 223 224
311 307 302 298 294 289 283 277 272 266 258 251 246 241 237 235 232 230 227 226 224 222 221 222 223 224 225 225 225 225 224 224 224 224 224 224 223 223 223 223 222 221 220 220 219 219 219 217 216 216 216 215 214 214 213 212 211 210 208 206 204 201 199 196 193 193 195 196 201 207 211 216 219 215 209 208 208 207 207 210 211 212 214 218 221 223 225 225
316 312 306 302 298 292 286 279 274 267 259 252 247 242 237 234 232 230 228 226 224 222 221 220 221 222 223 223 223 224 224 223 223 223 223 223 223 223 223 223 221 220 220 220 219 219 219 217 216 216 215 214 214 214 213 212 210 209 207 206 205 202 199 196 194 194 195 197 202 208 210 214 220 220 213 208 207 206 205 206 208 209 210 213 218 222 224 225
Height
10971 10971 10972 10972 10972 10972 10973 10973 10973 10973 10974 10974 10974 10975 10976 10976 10977 10978 10978 10978 10978 10978 10979 10979 10979 10980 10981 10981 10981 10982 10982 10982 10983 10983 10983 10983 10983 10984 10983 10983 10983 10983 10983 10983 10984 10984 10985 10985 10986 10988 10989 10990 10991 10992 10993 10995 10996 10998 10999 11000 11000 11000 11000 11000 11000 11000 11000 11000 11000 11000 11000 10999 10999 10998 10998 10997 10996 10996 10994 10994 10993 10992 10991 10990 10989 10988 10987 10987
10968 10968 10968 10969 10969 10969 10970 10970 10970 10971 10971 10971 10971 10972 10973 10974 10975 10975 10976 10976 10976 10977 10977 10977 10978 10978 10978 10979 10980 10980 10981 10981 10982 10982 10983 10983 10983 10983 10983 10984 10983 10984 10984 10984 10984 10984 10984 10985 10985 10986 10987 10988 10989 10990 10992 10993 10994 10995 10996 10997 10997 10998 10998 10998 10997 10998 10998 10998 10998 10997 10997 10997 10996 10995 10995 10994 10993 10992 10991 10990 10989 10988 10987 10986 10985 10985 10984 10984
10964 10965 10965 10965 10966 10966 10966 10967 10967 10967 10968 10968 10968 10969 10970 10971 10972 10973 10973 10974 10974 10974 10975 10975 10976 10976 10976 10977 10978 10979 10979 10980 10980 10981 10981 10982 10982 10982 10983 10983 10983 10983 10984 10984 10984 10984 10984 10984 10985 10985 10986 10987 10988 10989 10990 10991 10992 10993 10994 10994 10995 10995 10996 10995 10995 10995 10995 10995 10995 10995 10995 10995 10994 10993 10992 10991 10991 10989 10988 10987 10986 10985 10984 10983 10982 10981 10981 10981
10961 10961 10961 10962 10962 10962 10963 10963 10964 10964 10964 10965 10965 10966 10967 10968 10969 10970 10970 10971 10971 10972 10972 10973 10973 10974 10974 10975 10976 10976 10977 10978 10978 10979 10980 10980 10981 10981 10982 10982 10983 10983 10983 10983 10984 10984 10984 10984 10984 10985 10986 10986 10987 10988 10989 10990 10990 10991 10992 10993 10993 10993 10994 10993 10993 10993 10993 10993 10993 10993 10993 10993 10992 10991 10990 10989 10988 10987 10986 10985 10983 10981 10980 10979 10978 10978 10978 10979
10957 10957 10958 10958 10958 10958 10959 10959 10960 10960 10961 10961 10961 10962 10963 10965 10966 10967 10967 10968 10968 10969 10970 10970 10971 10971 10972 10972 10973 10974 10975 10976 10976 10977 10978 10979 10979 10980 10980 10981 10981 10982 10983 10983 10983 10983 10984 10984 10984 10984 10985 10986 10986 10987 10988 10988 10989 10990 10990 10991 10991 10991 10992 10992 10991 10992 10992 10992 10992 10992 10992 10991 10990 10989 10988 10988 10986 10984 10983 10982 10980 10978 10976 10975 10975 10975 10976 10976
10953 10953 10953 10954 10954 10954 10955 10955 10956 10956 10957 10957 10957 10958 10960 10961 10963 10963 10964 10964 10965 10966 10967 10967 10968 10968 10969 10970 10971 10971 10972 10973 10974 10974 10975 10976 10977 10978 10979 10979 10979 10980 10981 10981 10982 10982 10983 10983 10983 10983 10983 10984 10985 10986 10987 10987 10988 10988 10989 10990 10990 10990 10990 10990 10990 10990 10991 10991 10991 10990 10990 10989 10988 10987 10986 10986 10984 10982 10981 10979 10977 10975 10973 10972 10972 10973 10973 10974
10948 10949 10949 10949 10950 10950 10950 10951 10951 10952 10953 10953 10953 10954 10956 10957 10959 10959 10960 10961 10962 10963 10963 10964 10965 10965 10966 10967 10968 10968 10969 10970 10972 10972 10972 10973 10975 10976 10976 10977 10977 10978 10979 10980 10980 10981 10981 10982 10982 10982 10982 10983 10983 10984 10985 10986 10987 10987 10988 10989 10989 10989 10989 10989 10989 10989 10989 10989 10989 10989 10988 10987 10987 10986 10984 10983 10982 10980 10978 10976 10974 10972 10970 10969 10970 10971 10971 10972
10944 10944 10944 10945 10945 10946 10946 10946 10947 10948 10948 10948 10949 10950 10952 10953 10955 10955 10956 10957 10958 10959 10960 10961 10962 10963 10963 10963 10964 10965 10966 10968 10968 10969 10969 10970 10972 10973 10974 10974 10975 10976 10977 10978 10978 10979 10980 10980 10980 10981 10981 10981 10981 10982 10983 10984 10985 10985 10986 10987 10988 10988 10988 10988 10987 10987 10988 10988 10987 10987 10986 10986 10985 10984 10982 10981 10979 10978 10976 10974 10971 10969 10968 10968 10968 10969 10970 10970
10939 10939 10940 10940 10941 10941 10941 10942 10942 10943 10944 10944 10944 10946 10947 10949 10950 10951 10952 10953 10954 10955 10956 10957 10958 10960 10960 10960 10961 10960 10962 10965 10965 10966 10966 10967 10968 10970 10971 10971 10972 10973 10974 10976 10976 10977 10978 10978 10978 10979 10979 10979 10980 10980 10981 10982 10983 10983 10984 10985 10986 10986 10986 10986 10986 10986 10986 10986 10985 10985 10985 10984 10983 10982 10981 10979 10977 10976 10974 10972 10970 10968 10967 10967 10967 10967 10968 10969
10934 10934 10935 10936 10936 10936 10936 10937 10938 10939 10939 10939 10940 10941 10943 10944 10945 10946 10947 10948 10950 10951 10952 10953 10954 10956 10957 10957 10957 10956 10958 10962 10962 10962 10963 10963 10964 10966 10967 10968 10969 10971 10972 10973 10974 10975 10976 10976 10976 10976 10976 10977 10978 10978 10979 10980 10980 10981 10982 10983 10984 10984 10985 10985 10985 10984 10983 10983 10983 10983 10983 10982 10981 10980 10979 10977 10976 10974 10973 10971 10969 10968 10966 10966 10966 10966 10967 10967
10928 10929 10930 10930 10931 10931 10931 10932 10933 10933 10934 10934 10935 10936 10938 10938 10939 10941 10943 10943 10945 10946 10947 10949 10950 10952 10953 10953 10953 10951 10955 10958 10957 10958 10959 10960 10961 10962 10964 10964 10965 10967 10968 10969 10971 10972 10973 10974 10973 10973 10974 10975 10976 10976 10976 10977 10978 10978 10979 10980 10981 10982 10983 10983 10983 10982 10981 10981 10981 10981 10981 10980 10980 10979 10978 10976 10975 10973 10972 10971 10970 10968 10966 10965 10965 10966 10966 10966
10923 10923 10924 10925 10925 10925 10926 10926 10927 10928 10928 10928 10929 10930 10932 10933 10933 10935 10937 10938 10939 10941 10942 10944 10945 10947 10948 10949 10948 10947 10951 10953 10952 10954 10955 10956 10958 10958 10960 10961 10961 10962 10964 10966 10967 10969 10970 10970 10970 10971 10971 10973 10974 10973 10973 10974 10975 10976 10976 10977 10979 10979 10980 10981 10981 10981 10980 10979 10979 10979 10979 10978 10978 10977 10977 10975 10974 10973 10972 10971 10970 10969 10967 10965 10965 10965 10966 10966
10917 10917 10918 10919 10919 10920 10920 10920 10921 10922 10922 10923 10923 10924 10926 10927 10927 10929 10931 10932 10933 10934 10936 10938 10940 10941 10943 10944 10943 10943 10947 10949 10948 10949 10950 10952 10954 10955 10956 10957 10957 10958 10959 10961 10963 10965 10966 10967 10968 10968 10968 10969 10970 10970 10971 10972 10973 10973 10974 10975 10976 10977 10977 10978 10979 10979 10979 10978 10978 10978 10977 10977 10976 10976 10975 10974 10973 10972 10972 10971 10971 10969 10968 10966 10965 10965 10966 10966
10911 10911 10912 10913 10913 10914 10914 10913 10915 10916 10916 10916 10917 10918 10920 10921 10922 10923 10924 10926 10927 10928 10930 10932 10934 10936 10937 10939 10938 10938 10942 10944 10944 10944 10945 10947 10950 10951 10952 10952 10952 10953 10954 10956 10958 10960 10962 10964 10965 10965 10964 10965 10966 10967 10968 10969 10970 10970 10971 10971 10973 10974 10974 10976 10977 10977 10978 10977 10976 10976 10976 10975 10975 10974 10974 10973 10973 10972 10971 10971 10970 10969 10968 10967 10965 10965 10966 10967
10905 10905 10906 10906 10907 10908 10907 10907 10908 10909 10910 10910 10911 10912 10913 10914 10915 10916 10918 10919 10921 10922 10924 10925 10928 10929 10931 10933 10932 10932 10936 10939 10939 10938 10939 10943 10945 10946 10947 10947 10947 10948 10949 10950 10953 10955 10957 10959 10961 10961 10961 10961 10962 10964 10965 10965 10966 10967 10968 10969 10970 10970 10971 10973 10974 10975 10976 10976 10975 10975 10975 10974 10974 10974 10973 10973 10972 10972 10971 10970 10969 10969 10968 10967 10966 10965 10966 10967
10898 10898 10899 10900 10901 10902 10901 10900 10900 10902 10903 10903 10904 10905 10906 10908 10908 10910 10911 10912 10914 10916 10917 10919 10920 10922 10925 10927 10927 10926 10929 10933 10933 10932 10934 10937 10940 10941 10941 10941 10943 10944 10945 10946 10947 10950 10952 10954 10956 10957 10957 10958 10958 10959 10961 10961 10962 10963 10965 10966 10967 10968 10968 10969 10971 10972 10974 10975 10974 10974 10974 10974 10973 10974 10973 10972 10972 10971 10971 10970 10969 10968 10967 10967 10966 10966 10966 10967
10890 10891 10891 10892 10893 10895 10894 10893 10892 10893 10896 10897 10897 10898 10899 10900 10901 10902 10903 10905 10907 10908 10911 10912 10913 10915 10917 10921 10922 10920 10922 10926 10927 10926 10928 10932 10934 10935 10935 10936 10938 10939 10940 10941 10942 10943 10946 10949 10951 10952 10953 10954 10954 10955 10957 10957 10957 10959 10962 10964 10965 10965 10965 10966 10968 10969 10971 10973 10973 10973 10972 10973 10972 10973 10974 10973 10972 10971 10970 10969 10968 10967 10967 10967 10967 10966 10966 10967
10882 10882 10883 10884 10885 10887 10887 10886 10885 10884 10887 10889 10890 10890 10891 10892 10894 10894 10895 10897 10898 10901 10904 10904 10905 10907 10908 10913 10917 10914 10915 10919 10921 10921 10922 10925 10927 10928 10929 10931 10932 10934 10934 10935 10937 10938 10940 10942 10945 10947 10949 10950 10950 10950 10950 10950 10953 10956 10959 10961 10963 10963 10962 10963 10964 10965 10968 10970 10970 10971 10970 10971 10971 10971 10973 10972 10971 10970 10970 10969 10967 10966 10966 10966 10966 10966 10966 10967
10873 10873 10873 10874 10876 10878 10878 10878 10877 10875 10877 10881 10882 10882 10883 10884 10885 10886 10887 10889 10890 10892 10896 10896 10897 10899 10900 10905 10910 10909 10909 10911 10914 10915 10916 10918 10921 10922 10923 10925 10926 10927 10929 10929 10931 10933 10935 10937 10939 10941 10942 10943 10944 10944 10944 10946 10950 10953 10955 10958 10960 10960 10959 10960 10961 10962 10964 10967 10968 10969 10968 10969 10969 10969 10970 10970 10970 10969 10969 10968 10967 10966 10965 10965 10965 10965 10966 10966
10863 10863 10862 10863 10866 10869 10869 10869 10868 10867 10868 10871 10873 10874 10874 10875 10876 10877 10877 10879 10882 10883 10886 10888 10888 10890 10892 10895 10900 10902 10903 10904 10907 10908 10909 10911 10913 10915 10916 10919 10920 10920 10922 10924 10926 10929 10930 10930 10931 10931 10934 10937 10939 10939 10940 10943 10946 10949 10952 10954 10956 10957 10956 10956 10957 10958 10961 10964 10965 10967 10967 10966 10966 10966 10967 10968 10968 10968 10967 10967 10966 10965 10964 10964 10964 10964 10965 10966
10853 10852 10851 10852 10854 10857 10859 10860 10859 10859 10858 10860 10863 10865 10866 10865 10866 10869 10869 10870 10873 10873 10877 10879 10879 10881 10882 10886 10891 10895 10897 10899 10899 10900 10902 10904 10906 10908 10909 10911 10913 10913 10915 10919 10921 10923 10922 10921 10921 10924 10929 10933 10935 10936 10937 10939 10941 10945 10948 10949 10952 10953 10952 10953 10954 10954 10957 10961 10962 10964 10964 10964 10964 10964 10965 10965 10966 10966 10966 10965 10964 10964 10963 10963 10963 10963 10963 10964
10843 10841 10840 10840 10841 10845 10848 10849 10849 10850 10850 10851 10852 10855 10857 10856 10857 10860 10861 10862 10862 10865 10867 10868 10871 10870 10870 10879 10883 10886 10891 10891 10890 10892 10894 10897 10900 10900 10900 10904 10906 10906 10910 10914 10914 10914 10912 10912 10917 10921 10924 10927 10929 10931 10933 10932 10934 10939 10942 10944 10946 10946 10947 10950 10950 10951 10954 10957 10959 10960 10961 10961 10961 10962 10962 10963 10964 10964 10964 10964 10963 10962 10962 10962 10962 10962 10962 10963
10832 10830 10829 10828 10828 10832 10835 10837 10839 10840 10841 10841 10841 10844 10847 10847 10848 10850 10853 10854 10852 10855 10858 10857 10861 10861 10860 10869 10875 10879 10883 10881 10883 10885 10885 10890 10892 10892 10893 10896 10897 10900 10905 10907 10905 10905 10903 10906 10914 10916 10917 10920 10922 10924 10925 10925 10927 10931 10935 10937 10937 10939 10942 10944 10946 10948 10949 10952 10955 10957 10958 10959 10959 10960 10960 10960 10961 10962 10962 10962 10962 10961 10960 10960 10961 10961 10961 10961
10821 10819 10817 10816 10815 10818 10821 10824 10826 10829 10830 10831 10831 10833 10835 10836 10838 10840 10843 10846 10843 10843 10848 10849 10851 10851 10851 10858 10866 10873 10873 10872 10876 10877 10877 10882 10884 10885 10887 10886 10889 10895 10898 10897 10897 10898 10896 10900 10908 10908 10909 10913 10914 10916 10918 10918 10919 10922 10926 10928 10928 10933 10936 10939 10943 10944 10943 10947 10952 10954 10955 10956 10957 10958 10958 10958 10959 10960 10960 10960 10960 10959 10959 10958 10959 10960 10961 10961
10809 10807 10805 10805 10803 10804 10807 10809 10813 10817 10818 10819 10821 10822 10824 10825 10827 10830 10832 10836 10836 10831 10835 10842 10841 10839 10842 10848 10857 10863 10863 10864 10867 10868 10870 10874 10876 10878 10878 10878 10884 10889 10888 10888 10891 10891 10890 10894 10900 10901 10903 10905 10907 10909 10909 10910 10911 10914 10919 10921 10923 10929 10931 10934 10939 10938 10939 10944 10949 10951 10952 10953 10954 10956 10956 10955 10956 10957 10958 10959 10958 10958 10957 10957 10958 10959 10959 10960
10797 10794 10792 10792 10791 10790 10792 10794 10798 10802 10804 10807 10809 10811 10812 10813 10815 10818 10820 10825 10828 10821 10821 10831 10832 10830 10832 10838 10846 10850 10854 10857 10856 10860 10865 10866 10867 10870 10872 10874 10878 10879 10878 10881 10885 10886 10884 10885 10890 10894 10896 10897 10900 10900 10900 10903 10905 10908 10912 10915 10920 10924 10925 10929 10933 10935 10938 10940 10944 10949 10948 10949 10952 10953 10952 10952 10953 10955 10955 10957 10957 10956 10956 10956 10956 10957 10958 10959
10783 10781 10778 10777 10778 10777 10777 10779 10781 10785 10790 10793 10797 10799 10800 10802 10803 10806 10808 10811 10817 10814 10810 10816 10822 10825 10824 10827 10834 10838 10846 10849 10845 10853 10858 10854 10856 10861 10865 10869 10869 10869 10870 10874 10880 10878 10874 10876 10882 10887 10889 10891 10892 10892 10894 10899 10901 10903 10905 10911 10915 10917 10920 10924 10929 10934 10936 10936 10941 10945 10945 10947 10949 10948 10949 10950 10950 10952 10953 10954 10955 10955 10955 10955 10955 10956 10957 10958
10767 10767 10763 10761 10763 10764 10763 10765 10765 10769 10774 10777 10782 10786 10787 10790 10791 10793 10795 10797 10804 10806 10803 10804 10810 10817 10818 10817 10820 10826 10837 10838 10835 10844 10848 10844 10848 10854 10859 10863 10861 10860 10860 10868 10873 10867 10866 10872 10877 10881 10885 10886 10885 10885 10890 10895 10896 10897 10900 10905 10909 10912 10916 10920 10925 10931 10932 10933 10938 10940 10941 10943 10943 10943 10946 10947 10947 10948 10950 10952 10953 10953 10953 10953 10954 10955 10955 10956
10751 10751 10749 10746 10747 10748 10749 10750 10751 10752 10756 10760 10766 10771 10773 10775 10778 10780 10781 10784 10792 10796 10795 10796 10799 10804 10809 10810 10809 10814 10824 10827 10827 10835 10837 10837 10841 10845 10851 10853 10851 10851 10854 10861 10864 10861 10864 10869 10871 10877 10881 10879 10877 10879 10885 10889 10889 10890 10893 10899 10903 10907 10910 10913 10919 10924 10926 10931 10933 10932 10935 10936 10935 10940 10944 10943 10942 10944 10946 10949 10950 10951 10951 10952 10952 10953 10954 10955
10734 10735 10734 10732 10730 10732 10734 10735 10737 10738 10739 10743 10748 10754 10758 10760 10763 10765 10767 10773 10780 10782 10784 10788 10790 10792 10796 10799 10800 10803 10809 10815 10819 10824 10827 10830 10831 10835 10841 10842 10843 10848 10850 10854 10857 10858 10861 10861 10866 10873 10872 10869 10870 10874 10879 10882 10883 10884 10889 10894 10898 10900 10903 10907 10912 10915 10921 10928 10924 10920 10926 10929 10929 10936 10939 10936 10936 10940 10945 10947 10947 10948 10949 10950 10951 10952 10953 10953
10719 10718 10719 10718 10715 10716 10718 10719 10722 10724 10725 10726 10730 10737 10741 10745 10748 10749 10755 10763 10764 10767 10773 10777 10780 10782 10783 10786 10791 10794 10796 10801 10807 10813 10818 10822 10822 10825 10831 10835 10839 10844 10846 10850 10852 10853 10854 10854 10862 10866 10862 10862 10866 10869 10873 10876 10878 10880 10884 10889 10892 10895 10898 10902 10905 10910 10916 10916 10907 10906 10919 10925 10924 10929 10931 10929 10933 10939 10943 10943 10943 10945 10947 10948 10949 10950 10951 10952
10703 10702 10702 10702 10701 10702 10702 10703 10706 10709 10712 10712 10713 10719 10723 10728 10732 10735 10743 10748 10746 10752 10763 10766 10769 10772 10772 10774 10778 10782 10785 10789 10795 10801 10807 10813 10814 10817 10822 10826 10830 10835 10840 10843 10842 10845 10847 10847 10853 10856 10855 10858 10862 10863 10867 10872 10874 10875 10880 10884 10888 10889 10892 10896 10899 10903 10905 10900 10896 10904 10918 10921 10917 10920 10925 10924 10930 10937 10938 10939 10941 10943 10945 10946 10947 10949 10950 10951
10685 10685 10685 10685 10685 10686 10687 10688 10690 10692 10695 10698 10699 10702 10705 10709 10717 10723 10726 10728 10733 10743 10750 10753 10757 10759 10760 10762 10764 10769 10774 10778 10783 10787 10793 10801 10806 10808 10811 10815 10820 10826 10831 10832 10832 10838 10839 10839 10846 10850 10851 10854 10857 10859 10862 10866 10868 10870 10875 10880 10882 10885 10888 10891 10893 10895 10894 10893 10897 10906 10915 10914 10909 10915 10921 10921 10929 10935 10934 10936 10939 10940 10943 10944 10945 10947 10948 10949
10667 10668 10668 10668 10669 10670 10671 10672 10674 10675 10678 10681 10684 10686 10689 10694 10699 10704 10708 10714 10724 10730 10733 10738 10743 10744 10746 10748 10753 10757 10760 10766 10772 10775 10780 10788 10796 10801 10803 10806 10812 10817 10821 10825 10828 10832 10834 10836 10843 10846 10846 10848 10851 10853 10855 10859 10863 10866 10872 10877 10880 10882 10883 10884 10887 10888 10889 10894 10900 10904 10908 10906 10903 10911 10917 10918 10926 10931 10930 10933 10936 10938 10941 10942 10943 10945 10945 10947
10648 10650 10650 10651 10652 10653 10654 10655 10657 10659 10661 10663 10667 10669 10674 10678 10679 10683 10695 10706 10711 10713 10717 10723 10725 10727 10731 10736 10741 10744 10747 10754 10760 10764 10769 10775 10783 10791 10794 10796 10801 10804 10810 10819 10824 10826 10829 10834 10836 10837 10838 10841 10844 10846 10849 10855 10861 10863 10869 10875 10876 10875 10877 10880 10883 10884 10887 10893 10896 10896 10899 10897 10896 10906 10912 10914 10921 10925 10926 10930 10933 10935 10938 10940 10941 10942 10943 10945
10628 10630 10631 10632 10634 10634 10635 10638 10640 10642 10643 10645 10649 10650 10655 10660 10663 10670 10682 10691 10694 10697 10702 10704 10706 10711 10717 10722 10728 10732 10737 10743 10747 10751 10757 10763 10768 10776 10783 10788 10791 10795 10802 10813 10817 10819 10824 10827 10829 10830 10833 10838 10840 10841 10846 10853 10857 10860 10866 10870 10869 10870 10875 10878 10880 10881 10884 10888 10887 10888 10889 10887 10892 10903 10907 10909 10915 10920 10924 10927 10929 10932 10934 10937 10939 10939 10940 10942
10610 10609 10609 10610 10613 10614 10615 10618 10621 10623 10624 10626 10629 10632 10636 10641 10647 10656 10665 10672 10677 10682 10684 10684 10690 10698 10703 10710 10716 10722 10727 10731 10733 10737 10743 10750 10757 10764 10773 10780 10784 10789 10796 10806 10810 10812 10815 10819 10823 10824 10826 10831 10832 10835 10842 10848 10852 10859 10863 10863 10865 10871 10875 10875 10876 10878 10880 10881 10879 10880 10879 10879 10888 10897 10898 10902 10909 10915 10920 10924 10926 10929 10932 10934 10936 10937 10938 10939
10590 10588 10586 10586 10588 10591 10594 10596 10599 10602 10605 10607 10609 10612 10616 10622 10630 10638 10646 10654 10660 10664 10667 10669 10676 10684 10691 10697 10705 10710 10713 10715 10719 10723 10728 10738 10746 10755 10763 10770 10776 10782 10789 10796 10800 10803 10807 10812 10818 10817 10817 10822 10823 10829 10838 10843 10849 10857 10857 10859 10865 10869 10870 10871 10873 10874 10874 10874 10873 10873 10873 10875 10883 10889 10889 10895 10903 10909 10915 10920 10923 10927 10929 10931 10932 10934 10936 10937
10569 10565 10562 10562 10563 10566 10569 10572 10575 10579 10582 10587 10590 10593 10597 10603 10611 10618 10628 10637 10642 10645 10650 10654 10660 10670 10677 10684 10691 10696 10697 10702 10708 10711 10716 10727 10737 10746 10754 10760 10767 10774 10781 10786 10789 10795 10800 10803 10810 10810 10809 10812 10817 10827 10837 10840 10846 10852 10852 10857 10863 10864 10865 10867 10868 10869 10870 10870 10869 10870 10870 10872 10878 10884 10888 10893 10899 10905 10911 10915 10919 10922 10925 10927 10928 10931 10934 10935
10544 10539 10535 10536 10537 10538 10541 10544 10549 10553 10557 10563 10568 10573 10579 10584 10589 10597 10608 10619 10624 10628 10633 10639 10647 10655 10662 10670 10678 10680 10682 10690 10696 10698 10706 10717 10727 10735 10742 10749 10758 10764 10771 10776 10780 10787 10791 10793 10801 10803 10801 10806 10815 10826 10833 10835 10840 10846 10849 10854 10858 10859 10862 10863 10863 10866 10867 10866 10864 10865 10867 10869 10874 10882 10887 10889 10895 10903 10908 10913 10916 10919 10922 10923 10924 10928 10930 10933
10518 10514 10509 10509 10510 10511 10514 10516 10519 10525 10531 10537 10544 10551 10559 10565 10569 10576 10587 10598 10607 10612 10616 10624 10633 10641 10647 10655 10661 10664 10669 10677 10682 10686 10696 10705 10713 10722 10731 10739 10748 10754 10760 10764 10768 10776 10782 10785 10792 10795 10796 10803 10811 10818 10824 10827 10832 10838 10842 10847 10850 10853 10856 10857 10860 10862 10862 10861 10860 10861 10865 10867 10870 10877 10882 10884 10890 10897 10902 10908 10912 10915 10918 10920 10921 10924 10927 10930
10495 10492 10488 10486 10485 10487 10489 10490 10493 10499 10504 10510 10519 10526 10535 10543 10549 10557 10566 10576 10586 10594 10601 10609 10618 10626 10631 10637 10644 10651 10657 10663 10668 10675 10685 10693 10702 10712 10721 10728 10737 10743 10748 10752 10759 10769 10775 10777 10783 10789 10792 10796 10802 10809 10815 10821 10825 10829 10835 10841 10845 10849 10852 10855 10857 10857 10858 10858 10857 10860 10864 10864 10866 10871 10877 10880 10885 10890 10895 10900 10904 10908 10912 10915 10917 10921 10923 10926
10475 10473 10471 10467 10466 10468 10469 10470 10473 10477 10481 10486 10494 10502 10509 10518 10528 10537 10546 10555 10564 10575 10585 10593 10601 10609 10615 10621 10630 10638 10644 10649 10656 10664 10674 10683 10692 10701 10708 10716 10724 10731 10736 10743 10753 10761 10764 10768 10774 10779 10782 10786 10793 10802 10808 10813 10818 10825 10833 10838 10841 10846 10850 10853 10853 10854 10856 10856 10856 10859 10861 10862 10864 10867 10872 10875 10879 10884 10888 10893 10897 10901 10905 10908 10911 10915 10918 10921
10458 10456 10455 10453 10451 10452 10452 10454 10456 10459 10462 10467 10473 10478 10486 10495 10505 10515 10526 10536 10544 10555 10567 10577 10586 10593 10600 10609 10617 10622 10628 10635 10642 10651 10662 10671 10680 10688 10697 10704 10711 10720 10727 10735 10745 10750 10753 10759 10763 10767 10774 10779 10787 10797 10801 10807 10815 10822 10828 10833 10837 10841 10845 10848 10849 10851 10855 10856 10857 10857 10857 10860 10864 10865 10868 10871 10873 10877 10882 10886 10891 10895 10898 10901 10904 10908 10912 10914
10446 10441 10441 10441 10439 10437 10438 10439 10441 10443 10447 10450 10454 10460 10467 10474 10483 10494 10506 10516 10526 10536 10547 10559 10569 10577 10585 10595 10601 10606 10613 10621 10628 10639 10650 10659 10667 10676 10684 10692 10700 10710 10718 10726 10735 10739 10742 10750 10755 10759 10769 10776 10783 10792 10797 10803 10812 10818 10822 10828 10832 10836 10841 10843 10845 10848 10853 10854 10855 10855 10854 10857 10861 10861 10864 10867 10869 10873 10876 10879 10884 10888 10892 10895 10898 10902 10906 10909
10436 10430 10428 10428 10427 10425 10425 10426 10428 10430 10433 10436 10440 10445 10451 10457 10465 10475 10486 10496 10507 10518 10529 10540 10551 10561 10571 10579 10586 10592 10599 10606 10616 10628 10638 10646 10656 10665 10673 10681 10689 10699 10708 10716 10723 10727 10732 10741 10746 10752 10763 10770 10776 10785 10791 10797 10805 10811 10816 10822 10828 10832 10836 10838 10841 10846 10849 10850 10853 10852 10849 10852 10857 10858 10860 10863 10866 10869 10871 10874 10878 10883 10887 10891 10894 10898 10901 10905
10426 10422 10418 10417 10416 10415 10414 10415 10416 10418 10421 10424 10427 10431 10436 10442 10450 10458 10467 10478 10489 10500 10511 10520 10531 10544 10555 10563 10571 10579 10586 10594 10604 10616 10625 10634 10646 10654 10661 10669 10678 10687 10697 10704 10711 10717 10724 10731 10737 10744 10754 10762 10769 10778 10785 10790 10797 10803 10809 10815 10821 10826 10830 10833 10839 10843 10844 10847 10850 10847 10845 10848 10853 10855 10857 10859 10862 10865 10867 10870 10874 10878 10883 10887 10891 10894 10897 10900
10416 10414 10410 10408 10406 10405 10404 10405 10406 10408 10411 10413 10416 10419 10423 10428 10435 10442 10449 10459 10471 10482 10493 10502 10513 10527 10539 10548 10557 10566 10575 10583 10591 10601 10613 10624 10634 10642 10649 10658 10666 10675 10685 10693 10700 10708 10714 10721 10730 10737 10746 10754 10762 10770 10776 10782 10788 10795 10802 10808 10813 10820 10824 10829 10834 10836 10839 10843 10843 10840 10840 10844 10847 10850 10853 10855 10858 10861 10864 10866 10869 10873 10877 10880 10885 10888 10892 10895
10408 10405 10402 10400 10398 10397 10395 10395 10396 10398 10400 10403 10405 10408 10412 10416 10422 10428 10434 10443 10454 10465 10474 10483 10495 10510 10523 10534 10543 10552 10562 10569 10575 10587 10602 10613 10622 10629 10636 10645 10653 10663 10673 10682 10691 10698 10704 10712 10723 10730 10739 10748 10755 10761 10768 10775 10781 10788 10795 10801 10807 10814 10819 10824 10828 10831 10835 10838 10836 10834 10837 10839 10842 10846 10849 10851 10855 10859 10861 10863 10865 10868 10871 10875 10878 10882 10885 10889
10402 10398 10394 10393 10391 10390 10388 10386 10387 10389 10391 10393 10395 10398 10402 10406 10411 10416 10422 10429 10439 10449 10457 10467 10480 10492 10504 10517 10528 10538 10549 10557 10565 10579 10593 10602 10609 10615 10623 10632 10642 10654 10664 10672 10681 10688 10694 10704 10716 10723 10731 10739 10745 10753 10760 10766 10773 10780 10788 10795 10802 10808 10814 10819 10823 10827 10830 10832 10831 10831 10834 10835 10837 10842 10845 10849 10853 10856 10858 10861 10862 10865 10868 10871 10873 10876 10880 10883
10396 10392 10388 10386 10384 10383 10381 10379 10379 10381 10383 10384 10386 10389 10392 10396 10401 10405 10411 10417 10425 10434 10443 10453 10464 10476 10488 10502 10514 10525 10536 10546 10557 10570 10580 10587 10595 10604 10613 10624 10635 10645 10653 10662 10672 10679 10685 10698 10709 10714 10721 10729 10736 10743 10751 10758 10766 10773 10782 10790 10796 10802 10808 10812 10818 10822 10825 10827 10826 10828 10831 10831 10832 10837 10842 10846 10849 10852 10854 10857 10859 10862 10865 10867 10870 10873 10876 10879
10389 10386 10383 10380 10378 10377 10375 10374 10373 10374 10375 10376 10378 10380 10383 10387 10392 10396 10400 10406 10413 10421 10430 10440 10450 10462 10473 10487 10501 10514 10525 10535 10546 10558 10567 10574 10584 10594 10604 10614 10625 10634 10642 10651 10662 10670 10679 10690 10698 10703 10711 10720 10727 10735 10743 10751 10759 10767 10776 10784 10789 10795 10800 10805 10811 10816 10819 10821 10822 10824 10828 10827 10826 10832 10840 10844 10846 10848 10850 10852 10855 10859 10862 10865 10868 10870 10872 10874